Time,TemperatureF,DewpointF,PressureIn,WindDirection,WindDirectionDegrees,WindSpeedMPH,WindSpeedGustMPH,Humidity,HourlyPrecipIn,Conditions,Clouds,dailyrainin,SoftwareType,DateUTC
2013-05-21 00:03:00,68.0,68.0,30.06,SE,135,1.0,2.0,100,99.99,,,-99.99,,2013-05-21 04:03:00,
2013-05-21 00:13:00,68.0,68.0,30.06,NE,46,4.0,9.0,100,99.99,,,-99.99,,2013-05-21 04:13:00,
2013-05-21 00:23:00,68.0,68.0,30.06,NE,46,4.0,9.0,100,99.99,,,-99.99,,2013-05-21 04:23:00,
2013-05-21 00:33:00,68.0,68.0,30.05,NE,53,1.0,4.0,100,99.99,,,-99.99,,2013-05-21 04:33:00,
2013-05-21 00:42:00,68.0,68.0,30.05,NE,53,1.0,4.0,100,99.99,,,-99.99,,2013-05-21 04:42:00,
2013-05-21 00:53:00,68.0,68.0,30.04,North,356,1.0,3.0,100,99.99,,,-99.99,,2013-05-21 04:53:00,
2013-05-21 01:02:00,68.0,68.0,30.04,North,0,0.0,0.0,100,99.99,,,-99.99,,2013-05-21 05:02:00,
2013-05-21 01:12:00,68.0,68.0,30.04,North,0,0.0,0.0,100,99.99,,,-99.99,,2013-05-21 05:12:00,
2013-05-21 01:22:00,68.0,68.0,30.04,North,0,0.0,0.0,100,99.99,,,-99.99,,2013-05-21 05:22:00,
2013-05-21 01:32:00,67.0,67.0,30.03,ESE,105,2.0,4.0,100,99.99,,,-99.99,,2013-05-21 05:32:00,
2013-05-21 01:42:00,67.0,67.0,30.03,NNE,28,0.0,0.0,100,99.99,,,-99.99,,2013-05-21 05:42:00,
2013-05-21 01:52:00,67.0,67.0,30.03,NNE,28,0.0,0.0,100,99.99,,,-99.99,,2013-05-21 05:52:00,
2013-05-21 02:02:00,67.0,67.0,30.02,East,96,2.0,4.0,100,99.99,,,-99.99,,2013-05-21 06:02:00,
2013-05-21 02:12:00,67.0,67.0,30.02,East,96,2.0,4.0,100,99.99,,,-99.99,,2013-05-21 06:12:00,
2013-05-21 02:21:00,68.0,68.0,30.02,East,98,3.0,6.0,100,99.99,,,-99.99,,2013-05-21 06:21:00,
2013-05-21 02:32:00,68.0,68.0,30.01,ESE,122,4.0,6.0,100,99.99,,,-99.99,,2013-05-21 06:32:00,
2013-05-21 02:42:00,68.0,68.0,30.01,ESE,122,4.0,6.0,100,99.99,,,-99.99,,2013-05-21 06:42:00,
2013-05-21 02:52:00,69.0,69.0,30.01,ESE,108,2.0,5.0,100,99.99,,,-99.99,,2013-05-21 06:52:00,
2013-05-21 03:01:00,69.0,69.0,30.00,North,0,0.0,0.0,100,99.99,,,-99.99,,2013-05-21 07:01:00,
2013-05-21 03:11:00,68.0,68.0,30.00,North,0,0.0,0.0,100,99.99,,,-99.99,,2013-05-21 07:11:00,
2013-05-21 03:22:00,68.0,68.0,30.00,North,0,0.0,0.0,100,99.99,,,-99.99,,2013-05-21 07:22:00,
2013-05-21 03:31:00,68.0,68.0,30.00,North,0,0.0,0.0,100,99.99,,,-99.99,,2013-05-21 07:31:00,
2013-05-21 03:41:00,68.0,68.0,30.00,North,0,0.0,0.0,100,99.99,,,-99.99,,2013-05-21 07:41:00,
2013-05-21 03:52:00,69.0,69.0,30.00,ESE,107,3.0,6.0,100,99.99,,,-99.99,,2013-05-21 07:52:00,
2013-05-21 04:02:00,69.0,69.0,30.00,ESE,110,2.0,5.0,100,99.99,,,-99.99,,2013-05-21 08:02:00,
2013-05-21 04:11:00,69.0,69.0,29.99,North,0,0.0,0.0,100,99.99,,,-99.99,,2013-05-21 08:11:00,
2013-05-21 04:21:00,69.0,69.0,29.99,North,0,0.0,0.0,100,99.99,,,-99.99,,2013-05-21 08:21:00,
2013-05-21 04:31:00,68.0,68.0,29.99,North,0,0.0,0.0,100,99.99,,,-99.99,,2013-05-21 08:31:00,
2013-05-21 04:41:00,69.0,69.0,29.99,SSE,150,2.0,4.0,100,99.99,,,-99.99,,2013-05-21 08:41:00,
2013-05-21 04:52:00,69.0,69.0,29.99,SSE,150,2.0,4.0,100,99.99,,,-99.99,,2013-05-21 08:52:00,
2013-05-21 05:01:00,69.0,69.0,29.99,SE,129,4.0,6.0,100,99.99,,,-99.99,,2013-05-21 09:01:00,
2013-05-21 05:11:00,70.0,70.0,29.99,SE,141,2.0,4.0,100,99.99,,,-99.99,,2013-05-21 09:11:00,
2013-05-21 05:21:00,70.0,70.0,29.99,SE,141,2.0,4.0,100,99.99,,,-99.99,,2013-05-21 09:21:00,
2013-05-21 05:32:00,70.0,70.0,29.99,SE,127,6.0,8.0,100,99.99,,,-99.99,,2013-05-21 09:32:00,
2013-05-21 05:42:00,70.0,70.0,29.99,SE,127,6.0,8.0,100,99.99,,,-99.99,,2013-05-21 09:42:00,
2013-05-21 05:53:00,70.0,70.0,29.99,SSE,149,5.0,7.0,100,99.99,,,-99.99,,2013-05-21 09:53:00,
2013-05-21 06:02:00,70.0,70.0,29.99,ESE,121,4.0,7.0,100,99.99,,,-99.99,,2013-05-21 10:02:00,
2013-05-21 06:12:00,70.0,70.0,29.99,ESE,121,4.0,7.0,100,99.99,,,-99.99,,2013-05-21 10:12:00,
2013-05-21 06:22:00,70.0,70.0,30.00,SE,125,6.0,9.0,100,99.99,,,-99.99,,2013-05-21 10:22:00,
2013-05-21 06:32:00,71.0,71.0,30.01,SE,143,4.0,7.0,100,99.99,,,-99.99,,2013-05-21 10:32:00,
2013-05-21 06:42:00,71.0,71.0,30.01,SE,143,4.0,7.0,100,99.99,,,-99.99,,2013-05-21 10:42:00,
2013-05-21 06:52:00,71.0,71.0,30.01,SE,129,4.0,7.0,100,99.99,,,-99.99,,2013-05-21 10:52:00,
2013-05-21 07:02:00,71.0,71.0,30.01,ESE,122,2.0,5.0,100,99.99,,,-99.99,,2013-05-21 11:02:00,
2013-05-21 07:12:00,71.0,71.0,30.01,ESE,122,2.0,5.0,100,99.99,,,-99.99,,2013-05-21 11:12:00,
2013-05-21 07:21:00,71.0,71.0,30.02,ESE,117,3.0,5.0,100,99.99,,,-99.99,,2013-05-21 11:21:00,
2013-05-21 07:32:00,70.0,70.0,30.02,East,90,2.0,4.0,100,99.99,,,-99.99,,2013-05-21 11:32:00,
2013-05-21 07:42:00,70.0,70.0,30.02,East,90,2.0,4.0,100,99.99,,,-99.99,,2013-05-21 11:42:00,
2013-05-21 07:52:00,71.0,71.0,30.02,East,84,1.0,5.0,100,99.99,,,-99.99,,2013-05-21 11:52:00,
2013-05-21 08:01:00,71.0,71.0,30.02,ESE,118,4.0,7.0,100,99.99,,,-99.99,,2013-05-21 12:01:00,
2013-05-21 08:11:00,71.0,71.0,30.02,ESE,118,4.0,7.0,100,99.99,,,-99.99,,2013-05-21 12:11:00,
2013-05-21 08:21:00,72.0,72.0,30.02,SE,127,3.0,5.0,100,99.99,,,-99.99,,2013-05-21 12:21:00,
2013-05-21 08:32:00,72.0,72.0,30.02,ESE,120,4.0,6.0,100,99.99,,,-99.99,,2013-05-21 12:32:00,
2013-05-21 08:42:00,72.0,72.0,30.02,ESE,120,4.0,6.0,100,99.99,,,-99.99,,2013-05-21 12:42:00,
2013-05-21 08:52:00,73.0,73.0,30.03,SSE,149,3.0,4.0,100,99.99,,,-99.99,,2013-05-21 12:52:00,
2013-05-21 09:01:00,73.0,73.0,30.04,SE,136,2.0,4.0,100,99.99,,,-99.99,,2013-05-21 13:01:00,
2013-05-21 09:12:00,73.0,73.0,30.04,SE,136,2.0,4.0,100,99.99,,,-99.99,,2013-05-21 13:12:00,
2013-05-21 09:22:00,74.0,74.0,30.05,East,100,4.0,6.0,99,99.99,,,-99.99,,2013-05-21 13:22:00,
2013-05-21 09:32:00,75.0,74.0,30.05,East,94,5.0,7.0,98,99.99,,,-99.99,,2013-05-21 13:32:00,
2013-05-21 09:42:00,76.0,75.0,30.05,ESE,114,3.0,6.0,97,99.99,,,-99.99,,2013-05-21 13:42:00,
2013-05-21 09:52:00,76.0,75.0,30.05,ESE,114,3.0,6.0,97,99.99,,,-99.99,,2013-05-21 13:52:00,
2013-05-21 10:01:00,77.0,75.0,30.05,ESE,104,3.0,7.0,95,99.99,,,-99.99,,2013-05-21 14:01:00,
2013-05-21 10:11:00,78.0,76.0,30.05,ESE,121,3.0,5.0,93,99.99,,,-99.99,,2013-05-21 14:11:00,
2013-05-21 10:21:00,78.0,76.0,30.05,ESE,121,3.0,5.0,93,99.99,,,-99.99,,2013-05-21 14:21:00,
2013-05-21 10:32:00,78.0,75.0,30.06,East,79,1.0,4.0,91,99.99,,,-99.99,,2013-05-21 14:32:00,
2013-05-21 10:41:00,78.0,74.0,30.06,SE,124,2.0,4.0,87,99.99,,,-99.99,,2013-05-21 14:41:00,
2013-05-21 10:52:00,78.0,74.0,30.06,SE,124,2.0,4.0,87,99.99,,,-99.99,,2013-05-21 14:52:00,
2013-05-21 11:01:00,79.0,74.0,30.06,East,101,3.0,6.0,84,99.99,,,-99.99,,2013-05-21 15:01:00,
2013-05-21 11:11:00,79.0,73.0,30.06,SE,129,4.0,10.0,81,99.99,,,-99.99,,2013-05-21 15:11:00,
2013-05-21 11:21:00,79.0,73.0,30.06,SE,129,4.0,10.0,81,99.99,,,-99.99,,2013-05-21 15:21:00,
2013-05-21 11:33:00,81.0,73.0,30.05,South,188,4.0,6.0,77,99.99,,,-99.99,,2013-05-21 15:33:00,
2013-05-21 11:42:00,81.0,72.0,30.05,SE,145,3.0,9.0,75,99.99,,,-99.99,,2013-05-21 15:42:00,
2013-05-21 11:52:00,81.0,72.0,30.05,SE,145,3.0,9.0,75,99.99,,,-99.99,,2013-05-21 15:52:00,
2013-05-21 12:03:00,82.0,72.0,30.04,SE,135,4.0,8.0,72,99.99,,,-99.99,,2013-05-21 16:03:00,
2013-05-21 12:13:00,83.0,71.0,30.03,ESE,122,6.0,8.0,68,99.99,,,-99.99,,2013-05-21 16:13:00,
2013-05-21 12:23:00,83.0,71.0,30.03,ESE,122,6.0,8.0,68,99.99,,,-99.99,,2013-05-21 16:23:00,
2013-05-21 12:32:00,83.0,71.0,30.03,ESE,122,4.0,8.0,67,99.99,,,-99.99,,2013-05-21 16:32:00,
2013-05-21 12:42:00,84.0,71.0,30.02,SE,129,8.0,13.0,66,99.99,,,-99.99,,2013-05-21 16:42:00,
2013-05-21 12:53:00,84.0,71.0,30.02,SE,129,8.0,13.0,66,99.99,,,-99.99,,2013-05-21 16:53:00,
2013-05-21 13:02:00,83.0,70.0,30.02,South,172,3.0,5.0,66,99.99,,,-99.99,,2013-05-21 17:02:00,
2013-05-21 13:12:00,80.0,74.0,30.02,WNW,288,9.0,15.0,81,99.99,,,-99.99,,2013-05-21 17:12:00,
2013-05-21 13:23:00,80.0,74.0,30.02,WNW,288,9.0,15.0,81,99.99,,,-99.99,,2013-05-21 17:23:00,
2013-05-21 13:32:00,77.0,74.0,30.02,West,269,5.0,9.0,89,99.99,,,-99.99,,2013-05-21 17:32:00,
2013-05-21 13:43:00,76.0,74.0,30.02,SSW,193,6.0,9.0,93,99.99,,,-99.99,,2013-05-21 17:43:00,
2013-05-21 13:52:00,76.0,74.0,30.02,SSW,193,6.0,9.0,93,99.99,,,-99.99,,2013-05-21 17:52:00,
2013-05-21 14:02:00,75.0,73.0,30.02,SSE,156,4.0,6.0,92,99.99,,,-99.99,,2013-05-21 18:02:00,
2013-05-21 14:12:00,74.0,71.0,30.01,SSW,208,1.0,4.0,90,99.99,,,-99.99,,2013-05-21 18:12:00,
2013-05-21 14:22:00,74.0,71.0,30.01,SSW,208,1.0,4.0,90,99.99,,,-99.99,,2013-05-21 18:22:00,
2013-05-21 14:32:00,75.0,73.0,30.01,ENE,59,1.0,3.0,92,99.99,,,-99.99,,2013-05-21 18:32:00,
2013-05-21 14:42:00,77.0,72.0,30.01,ESE,108,3.0,5.0,86,99.99,,,-99.99,,2013-05-21 18:42:00,
2013-05-21 14:52:00,77.0,72.0,30.01,ESE,108,3.0,5.0,86,99.99,,,-99.99,,2013-05-21 18:52:00,
2013-05-21 15:01:00,78.0,73.0,30.00,NE,56,3.0,7.0,84,99.99,,,-99.99,,2013-05-21 19:01:00,
2013-05-21 15:11:00,79.0,74.0,29.97,NNE,24,4.0,9.0,84,99.99,,,-99.99,,2013-05-21 19:11:00,
2013-05-21 15:21:00,79.0,74.0,29.97,NNE,24,4.0,9.0,84,99.99,,,-99.99,,2013-05-21 19:21:00,
2013-05-21 15:32:00,81.0,74.0,29.98,ESE,104,5.0,10.0,80,99.99,,,-99.99,,2013-05-21 19:32:00,
2013-05-21 15:42:00,80.0,70.0,30.00,NE,51,8.0,14.0,71,99.99,,,-99.99,,2013-05-21 19:42:00,
2013-05-21 15:52:00,80.0,70.0,30.00,NE,51,8.0,14.0,71,99.99,,,-99.99,,2013-05-21 19:52:00,
2013-05-21 16:03:00,79.0,71.0,30.00,NE,37,7.0,15.0,76,99.99,,,-99.99,,2013-05-21 20:03:00,
2013-05-21 16:11:00,78.0,72.0,29.99,NNE,28,8.0,15.0,81,99.99,,,-99.99,,2013-05-21 20:11:00,
2013-05-21 16:22:00,78.0,72.0,29.99,NNE,28,8.0,15.0,81,99.99,,,-99.99,,2013-05-21 20:22:00,
2013-05-21 16:32:00,78.0,73.0,29.98,NE,49,8.0,16.0,84,99.99,,,-99.99,,2013-05-21 20:32:00,
2013-05-21 16:42:00,79.0,73.0,29.96,NE,37,9.0,16.0,81,99.99,,,-99.99,,2013-05-21 20:42:00,
2013-05-21 16:52:00,79.0,73.0,29.96,NE,37,9.0,16.0,81,99.99,,,-99.99,,2013-05-21 20:52:00,
2013-05-21 17:02:00,80.0,71.0,29.97,ESE,104,7.0,12.0,75,99.99,,,-99.99,,2013-05-21 21:02:00,
2013-05-21 17:11:00,79.0,71.0,29.97,ENE,77,7.0,15.0,77,99.99,,,-99.99,,2013-05-21 21:11:00,
2013-05-21 17:21:00,79.0,71.0,29.97,ENE,77,7.0,15.0,77,99.99,,,-99.99,,2013-05-21 21:21:00,
2013-05-21 17:33:00,80.0,72.0,29.96,ENE,60,6.0,13.0,76,99.99,,,-99.99,,2013-05-21 21:33:00,
2013-05-21 17:43:00,79.0,72.0,29.97,East,89,4.0,8.0,78,99.99,,,-99.99,,2013-05-21 21:43:00,
2013-05-21 17:54:00,79.0,72.0,29.97,East,89,4.0,8.0,78,99.99,,,-99.99,,2013-05-21 21:54:00,
2013-05-21 18:02:00,79.0,72.0,29.97,ESE,110,5.0,10.0,79,99.99,,,-99.99,,2013-05-21 22:02:00,
2013-05-21 18:12:00,79.0,72.0,29.97,ESE,107,7.0,11.0,79,99.99,,,-99.99,,2013-05-21 22:12:00,
2013-05-21 18:22:00,79.0,72.0,29.97,ESE,107,7.0,11.0,79,99.99,,,-99.99,,2013-05-21 22:22:00,
2013-05-21 18:33:00,79.0,72.0,29.97,SE,138,7.0,12.0,80,99.99,,,-99.99,,2013-05-21 22:33:00,
2013-05-21 18:42:00,79.0,71.0,29.97,SE,127,5.0,10.0,76,99.99,,,-99.99,,2013-05-21 22:42:00,
2013-05-21 18:53:00,79.0,71.0,29.97,SE,127,5.0,10.0,76,99.99,,,-99.99,,2013-05-21 22:53:00,
2013-05-21 19:02:00,78.0,69.0,29.98,SE,134,6.0,10.0,75,99.99,,,-99.99,,2013-05-21 23:02:00,
2013-05-21 19:12:00,79.0,71.0,29.97,ESE,117,6.0,8.0,76,99.99,,,-99.99,,2013-05-21 23:12:00,
2013-05-21 19:22:00,79.0,71.0,29.97,ESE,117,6.0,8.0,76,99.99,,,-99.99,,2013-05-21 23:22:00,
2013-05-21 19:32:00,79.0,73.0,29.97,SE,131,7.0,10.0,81,99.99,,,-99.99,,2013-05-21 23:32:00,
2013-05-21 19:42:00,78.0,73.0,29.98,SE,142,7.0,12.0,84,99.99,,,-99.99,,2013-05-21 23:42:00,
2013-05-21 19:52:00,78.0,73.0,29.98,SE,142,7.0,12.0,84,99.99,,,-99.99,,2013-05-21 23:52:00,
2013-05-21 20:01:00,77.0,71.0,29.98,SE,125,9.0,16.0,82,99.99,,,-99.99,,2013-05-22 00:01:00,
2013-05-21 20:11:00,75.0,70.0,29.97,SE,127,6.0,10.0,85,99.99,,,-99.99,,2013-05-22 00:11:00,
2013-05-21 20:21:00,75.0,70.0,29.97,SE,127,6.0,10.0,85,99.99,,,-99.99,,2013-05-22 00:21:00,
2013-05-21 20:32:00,75.0,71.0,29.98,SE,131,5.0,8.0,88,99.99,,,-99.99,,2013-05-22 00:32:00,
2013-05-21 20:41:00,75.0,72.0,29.98,SE,124,3.0,6.0,91,99.99,,,-99.99,,2013-05-22 00:41:00,
2013-05-21 20:52:00,75.0,72.0,29.98,SE,124,3.0,6.0,91,99.99,,,-99.99,,2013-05-22 00:52:00,
2013-05-21 21:01:00,75.0,72.0,29.98,ESE,104,1.0,3.0,91,99.99,,,-99.99,,2013-05-22 01:01:00,
2013-05-21 21:11:00,75.0,73.0,29.98,ESE,110,3.0,4.0,93,99.99,,,-99.99,,2013-05-22 01:11:00,
2013-05-21 21:21:00,75.0,73.0,29.98,ESE,110,3.0,4.0,93,99.99,,,-99.99,,2013-05-22 01:21:00,
2013-05-21 21:32:00,75.0,73.0,29.98,East,79,2.0,5.0,95,99.99,,,-99.99,,2013-05-22 01:32:00,
2013-05-21 21:42:00,75.0,74.0,29.98,ENE,62,0.0,2.0,96,99.99,,,-99.99,,2013-05-22 01:42:00,
2013-05-21 21:52:00,75.0,74.0,29.98,ENE,62,0.0,2.0,96,99.99,,,-99.99,,2013-05-22 01:52:00,
2013-05-21 22:02:00,74.0,73.0,29.98,East,96,1.0,3.0,96,99.99,,,-99.99,,2013-05-22 02:02:00,
2013-05-21 22:11:00,74.0,73.0,29.98,East,98,2.0,4.0,97,99.99,,,-99.99,,2013-05-22 02:11:00,
2013-05-21 22:21:00,74.0,73.0,29.98,East,98,2.0,4.0,97,99.99,,,-99.99,,2013-05-22 02:21:00,
2013-05-21 22:32:00,74.0,73.0,29.98,East,93,3.0,5.0,96,99.99,,,-99.99,,2013-05-22 02:32:00,
2013-05-21 22:42:00,73.0,72.0,29.97,ESE,115,5.0,8.0,97,99.99,,,-99.99,,2013-05-22 02:42:00,
2013-05-21 22:52:00,73.0,72.0,29.97,ESE,115,5.0,8.0,97,99.99,,,-99.99,,2013-05-22 02:52:00,
2013-05-21 23:01:00,73.0,72.0,29.99,SE,128,4.0,8.0,98,99.99,,,-99.99,,2013-05-22 03:01:00,
2013-05-21 23:11:00,73.0,72.0,29.98,SE,131,5.0,9.0,98,99.99,,,-99.99,,2013-05-22 03:11:00,
2013-05-21 23:21:00,73.0,72.0,29.98,SE,131,5.0,9.0,98,99.99,,,-99.99,,2013-05-22 03:21:00,
2013-05-21 23:33:00,73.0,72.0,29.98,ESE,115,4.0,6.0,98,99.99,,,-99.99,,2013-05-22 03:33:00,
2013-05-21 23:43:00,73.0,72.0,29.98,East,94,4.0,8.0,98,99.99,,,-99.99,,2013-05-22 03:43:00,
2013-05-21 23:53:00,73.0,72.0,29.98,East,94,4.0,8.0,98,99.99,,,-99.99,,2013-05-22 03:53:00,